Location: ??? ?????
(30.6482°N, 60.5850°E)
Time: 18:52:44
(UTC+00:00)

GEOS 3 Rocket - Pass Details

Date: 09 April 2020
Orbit: 774 x 846 km, 115.0° (Epoch: 06 June)

Event Time Altitude Azimuth Distance (km) Brightness Sun altitude
Exits shadow 16:05:10 42° 153° (SSE) 1,105 3.9 -22.0°
Maximum altitude 16:06:56 85° 239° (WSW) 799 3.5 -22.4°
Drops below altitude 10° 16:12:06 10° 327° (NNW) 2,382 6.8 -23.4°
Sets 16:14:25 0° 328° (NNW) 3,326 7.7 -23.8°
